Location: LDNL
(36.4545°S, 141.6685°E)
Time: 06:32:45
(UTC+10:00)

Explorer 7 - Visible Passes

Search period start: 10 August 2022 00:00
Search period end: 20 August 2022 00:00
Orbit: 482 x 668 km, 50.3° (Epoch: 09 August)

Date Brightness Start Highest point End Pass type
(mag) Time Alt. Az. Time Alt. Az. Time Alt. Az.
10 Aug 7.2 19:13:06 10° NW 19:17:58 78° SW 19:20:37 26° SE visible
10 Aug 9.8 20:55:16 10° WSW 20:56:50 16° SW 20:56:50 16° SW visible
11 Aug 7.8 19:15:55 10° WNW 19:20:40 53° SW 19:23:33 22° SE visible
11 Aug 9.9 20:58:38 10° WSW 20:59:45 14° SW 20:59:45 14° SW visible
12 Aug 8.3 19:18:56 10° W 19:23:27 37° SSW 19:26:24 19° SSE visible
12 Aug 10.1 21:02:01 10° SW 21:02:35 12° SW 21:02:35 12° SW visible
13 Aug 8.7 19:22:05 10° W 19:26:17 28° SSW 19:29:10 16° SSE visible
13 Aug 10.2 21:05:18 10° SW 21:05:21 10° SW 21:05:21 10° SW visible
14 Aug 9.0 19:25:21 10° WSW 19:29:10 22° SSW 19:31:52 14° SSE visible
15 Aug 9.2 19:28:41 10° WSW 19:32:07 19° SSW 19:34:32 13° SSE visible
16 Aug 9.3 19:32:02 10° SW 19:35:07 16° S 19:37:10 13° SSE visible
17 Aug 9.3 19:35:18 10° SW 19:38:07 15° S 19:39:47 13° SSE visible
18 Aug 9.3 19:38:23 10° SW 19:41:09 15° S 19:42:22 14° SSE visible
19 Aug 9.2 19:41:18 10° SSW 19:44:10 15° S 19:44:58 15° SSE visible
